FW8630 Weather Reports


Display with metric or nautical units.
time (UTC)temp
F
wind
direction
speed
MPH
gust
MPH
rain 1hr
in
rain 24hr
in
rain mn
in
humidity
%
barometer
mb
20260508080020 55 53 4.0 15.0 0.00 0.00 0.00 58 1027.2
20260508074517 55 13 7.0 14.0 0.00 0.00 0.00 58 1027.3
20260508073016 54 61 8.0 15.0 0.00 0.00 0.00 59 1027.3
20260508071531 54 91 8.0 16.0 0.00 0.00 0.00 60 1027.1
20260508070011 54 61 5.0 15.0 0.00 0.00 0.00 64 1026.8
20260508064511 54 18 9.0 15.0 0.00 0.00 0.00 66 1026.8
20260508063009 53 82 6.0 11.0 0.00 0.00 0.00 70 1026.7
20260508061559 51 34 6.0 13.0 0.00 0.00 0.00 72 1026.6
20260508060057 49 75 4.0 13.0 0.00 0.00 0.00 76 1026.5
20260508054550 49 78 5.0 10.0 0.00 0.00 0.00 77 1026.5
20260508053045 47 85 3.0 8.0 0.00 0.00 0.00 81 1026.5
20260508051541 44 68 3.0 6.0 0.00 0.00 0.00 83 1026.4
20260508050037 42 46 4.0 9.0 0.00 0.00 0.00 86 1026.1
20260508044532 39 43 3.0 5.0 0.00 0.00 0.00 88 1026.1
20260508043027 36 83 1.0 4.0 0.00 0.00 0.00 88 1026.0
20260508041523 34 89 2.0 4.0 0.00 0.00 0.00 88 1025.8
20260508033017 31 42 3.0 5.0 0.00 0.00 0.00 91 1025.6
20260508031511 30 44 1.0 4.0 0.00 0.00 0.00 92 1025.5
20260508021557 30 65 2.0 4.0 0.00 0.00 0.00 92 1024.8
20260508020100 30 66 0.0 3.0 0.00 0.00 0.00 93 1024.6
20260508014553 29 72 2.0 4.0 0.00 0.00 0.00 94 1024.6
20260508013049 29 69 0.0 0.0 0.00 0.00 0.00 96 1024.4
20260508011546 29 69 0.0 0.0 0.00 0.00 0.00 96 1024.5
20260508010044 30 69 0.0 0.0 0.00 0.00 0.00 95 1024.3
20260508004543 30 69 0.0 0.0 0.00 0.00 0.00 96 1024.3
20260508003041 30 69 0.0 0.0 0.00 0.00 0.00 97 1024.2
20260508001539 30 69 0.0 0.0 0.00 0.00 0.00 97 1024.1
20260508000040 31 69 0.0 0.0 0.00 0.00 0.00 97 1024.1
20260507234535 31 69 0.0 0.0 0.00 0.00 0.00 97 1024.0
20260507233040 32 69 0.0 0.0 0.00 0.00 0.00 96 1023.8
20260507231535 33 69 0.0 0.0 0.00 0.00 0.00 97 1023.7
20260507230026 33 69 0.0 0.0 0.00 0.00 0.00 96 1023.5
20260507224526 34 69 0.0 0.0 0.00 0.00 0.00 95 1023.2
20260507223021 34 69 0.0 0.0 0.00 0.00 0.00 95 1023.2
20260507221521 35 69 0.0 0.0 0.00 0.00 0.00 94 1023.1
20260507220019 35 69 0.0 0.0 0.00 0.00 0.00 93 1023.0
20260507214517 36 69 0.0 0.0 0.00 0.00 0.00 93 1023.0
20260507213016 37 69 0.0 1.0 0.00 0.00 0.00 92 1022.9
20260507211519 38 69 0.0 0.0 0.00 0.00 0.00 92 1022.5
20260507210011 38 69 0.0 2.0 0.00 0.00 0.00 90 1022.4
20260507204510 39 69 0.0 1.0 0.00 0.00 0.00 89 1022.2
20260507203010 40 69 0.0 2.0 0.00 0.00 0.00 87 1022.2
20260507201507 41 69 0.0 0.0 0.00 0.00 0.00 85 1022.0
20260507200006 43 69 0.0 0.0 0.00 0.00 0.00 84 1021.9
20260507194505 44 69 0.0 2.0 0.00 0.00 0.00 82 1021.7
20260507193004 45 69 2.0 5.0 0.00 0.00 0.00 80 1021.5
20260507191502 45 69 1.0 6.0 0.00 0.00 0.00 79 1021.2
20260507190106 46 80 2.0 5.0 0.00 0.00 0.00 78 1021.0
20260507184602 48 70 1.0 3.0 0.00 0.00 0.00 76 1020.8
20260507183058 49 63 1.0 5.0 0.00 0.00 0.00 75 1020.6
20260507181555 50 63 2.0 6.0 0.00 0.00 0.00 73 1020.3
20260507180054 51 26 3.0 9.0 0.00 0.00 0.00 71 1020.0
20260507174552 52 49 2.0 8.0 0.00 0.00 0.00 69 1019.9
20260507173050 53 55 3.0 10.0 0.00 0.00 0.00 67 1019.8
20260507171549 54 69 2.0 9.0 0.00 0.00 0.00 65 1019.6
20260507170053 56 5 2.0 8.0 0.00 0.00 0.00 63 1019.5
20260507164557 58 40 2.0 10.0 0.00 0.00 0.00 63 1019.3
20260507163045 58 68 2.0 9.0 0.00 0.00 0.00 63 1019.3
20260507161545 58 122 3.0 11.0 0.00 0.00 0.00 63 1019.2
20260507160044 59 47 4.0 10.0 0.00 0.00 0.00 61 1019.3
20260507154551 60 44 5.0 12.0 0.00 0.00 0.00 59 1019.1
20260507153041 60 44 3.0 10.0 0.00 0.00 0.00 61 1019.1
20260507151539 58 5 4.0 12.0 0.00 0.00 0.00 57 1019.1
20260507150035 58 301 4.0 11.0 0.00 0.00 0.00 58 1019.0
20260507144534 57 336 6.0 11.0 0.00 0.00 0.00 56 1018.8
20260507143035 57 317 7.0 12.0 0.00 0.00 0.00 56 1018.7
20260507141531 56 49 4.0 13.0 0.00 0.00 0.00 57 1018.8
20260507140032 56 355 5.0 12.0 0.00 0.00 0.00 57 1018.7
20260507134532 57 333 4.0 12.0 0.00 0.00 0.00 54 1018.6
20260507133029 56 345 8.0 16.0 0.00 0.00 0.00 55 1018.3
20260507131533 56 306 6.0 19.0 0.00 0.00 0.00 56 1018.4
20260507130026 57 320 5.0 15.0 0.00 0.00 0.00 56 1018.2
20260507124530 57 13 6.0 12.0 0.00 0.00 0.00 58 1018.1
20260507123023 56 340 6.0 14.0 0.00 0.00 0.00 58 1017.9
20260507121522 56 300 10.0 16.0 0.00 0.00 0.00 57 1017.8
20260507120026 57 299 8.0 14.0 0.00 0.00 0.00 55 1017.7
20260507114520 56 312 6.0 12.0 0.00 0.00 0.00 55 1017.6
20260507113019 57 307 5.0 13.0 0.00 0.00 0.00 52 1017.7
20260507111517 56 325 6.0 12.0 0.00 0.00 0.00 53 1017.8
20260507110017 56 312 5.0 13.0 0.00 0.00 0.00 55 1017.8
20260507104514 56 278 6.0 15.0 0.00 0.00 0.00 59 1017.7
20260507103013 56 336 7.0 14.0 0.00 0.00 0.00 56 1017.5
20260507101515 56 355 8.0 13.0 0.00 0.00 0.00 61 1017.4
20260507100009 55 312 6.0 13.0 0.00 0.00 0.00 56 1017.7
20260507094508 55 331 4.0 9.0 0.00 0.00 0.00 58 1017.2
20260507093004 54 24 1.0 11.0 0.00 0.00 0.00 53 1017.2
20260507091600 54 61 2.0 10.0 0.00 0.00 0.00 54 1017.1
20260507090101 53 9 3.0 11.0 0.00 0.00 0.00 53 1017.1
20260507084559 52 19 3.0 12.0 0.00 0.00 0.00 56 1016.9
20260507083052 51 348 6.0 14.0 0.00 0.00 0.00 55 1016.7
20260507081548 51 294 3.0 12.0 0.00 0.00 0.00 57 1016.8